This is the latest recevied weather packets stored in our database for station/object MB7UUE. If no packets are shown the sender has not sent any weather packets the latest 10 day(s).
| Time | Temp. | Humidity | Pressure | Rain* | Wind** | Luminosity | Snow |
|---|---|---|---|---|---|---|---|
| 1787831393 | 21.67° C | 88% | 1007.7 hPa | 0 mm | - | - | - |
| 1787831097 | 21.67° C | 88% | 1007.9 hPa | 0 mm | - | - | - |
| 1787830252 | 21.11° C | 88% | 1008 hPa | 0 mm | - | - | - |
| 1787829959 | 21.11° C | 88% | 1008 hPa | 0 mm | - | - | - |
| 1787829112 | 21.11° C | 88% | 1008.1 hPa | 0 mm | - | - | - |
| 1787828817 | 20.56° C | 88% | 1008 hPa | 0 mm | - | - | - |
| 1787827972 | 20.56° C | 88% | 1007.8 hPa | 0 mm | - | - | - |
| 1787827677 | 20.56° C | 88% | 1007.7 hPa | 0 mm | - | - | - |
| 1787826833 | 20° C | 88% | 1007.6 hPa | 0 mm | - | - | - |
| 1787826537 | 20° C | 88% | 1007.5 hPa | 0 mm | - | - | - |
| 1787825693 | 20° C | 89% | 1007.6 hPa | 0.25 mm | - | - | - |
| 1787825398 | 20° C | 89% | 1007.6 hPa | 0.25 mm | - | - | - |
| 1787824552 | 20° C | 89% | 1007.6 hPa | 0.76 mm | - | - | - |
| 1787824258 | 19.44° C | 89% | 1007.6 hPa | 1.27 mm | - | - | - |
| 1787823413 | 19.44° C | 91% | 1008.1 hPa | 2.29 mm | - | - | - |
| 1787823117 | 19.44° C | 91% | 1008.1 hPa | 2.79 mm | - | - | - |
| 1787822273 | 19.44° C | 91% | 1008.3 hPa | 3.56 mm | - | - | - |
| 1787821978 | 19.44° C | 91% | 1008.4 hPa | 3.3 mm | - | - | - |
| 1787821132 | 19.44° C | 90% | 1008.5 hPa | 3.56 mm | - | - | - |
| 1787820838 | 19.44° C | 90% | 1008.6 hPa | 3.3 mm | - | - | - |
| 1787819992 | 19.44° C | 90% | 1008.6 hPa | 3.05 mm | - | - | - |
| 1787819698 | 19.44° C | 90% | 1008.6 hPa | 3.3 mm | - | - | - |
| 1787818853 | 19.44° C | 88% | 1008.7 hPa | 2.54 mm | - | - | - |
| 1787818558 | 19.44° C | 88% | 1008.7 hPa | 2.29 mm | - | - | - |
| 1787817712 | 19.44° C | 88% | 1008.7 hPa | 2.29 mm | - | - | - |
* Rain latest hour (hover to see other rain measurements)
** Current wind speed in m/s (hover to see current wind gust speed)